MTN8459 KERI-KCLE

Flight info

Callsign MTN8459
Flight time 0h 34m
Altitude 4000
Route CLERI
Aircraft C208/L-SDFGR/C

Departure

Time 2026-05-07 14:16
Airport Erie International Tom Ridge Field (KERI)

Arrival

Time 2026-05-07 14:51
Airport Cleveland Hopkins International Airport (KCLE)
Time Latitude Longitude Altitude Speed Heading
2026-05-07 13:48 42.07993 -80.18643 739 ft 0 kts 192°
2026-05-07 14:10 42.08011 -80.18638 739 ft 0 kts 193°
2026-05-07 14:11 42.08009 -80.18638 739 ft 2 kts 179°
2026-05-07 14:11 42.08006 -80.18579 739 ft 12 kts 88°
2026-05-07 14:11 42.07987 -80.18424 739 ft 20 kts 113°
2026-05-07 14:11 42.08013 -80.18310 739 ft 11 kts 25°
2026-05-07 14:12 42.08094 -80.18266 738 ft 17 kts 60°
2026-05-07 14:12 42.08090 -80.18064 738 ft 26 kts 92°
2026-05-07 14:12 42.08128 -80.17814 738 ft 31 kts 52°
2026-05-07 14:12 42.08270 -80.17545 737 ft 39 kts 56°
2026-05-07 14:13 42.08433 -80.17229 735 ft 43 kts 57°
2026-05-07 14:13 42.08524 -80.17016 735 ft 0 kts 126°
2026-05-07 14:14 42.08513 -80.16999 734 ft 8 kts 136°
2026-05-07 14:14 42.08427 -80.17012 733 ft 10 kts 231°
2026-05-07 14:14 42.08424 -80.17018 733 ft 0 kts 234°
2026-05-07 14:14 42.08423 -80.17018 733 ft 0 kts 234°
2026-05-07 14:15 42.08312 -80.17224 734 ft 53 kts 235°
2026-05-07 14:15 42.08020 -80.17770 773 ft 85 kts 233°
2026-05-07 14:15 42.07620 -80.18405 944 ft 98 kts 231°
2026-05-07 14:15 42.07124 -80.19187 992 ft 121 kts 234°
2026-05-07 14:16 42.06586 -80.20108 1166 ft 127 kts 234°
2026-05-07 14:16 42.06027 -80.21075 1384 ft 133 kts 234°
2026-05-07 14:16 42.05450 -80.22062 1634 ft 135 kts 234°
2026-05-07 14:16 42.04856 -80.23027 1877 ft 135 kts 233°
2026-05-07 14:17 42.04248 -80.23989 2116 ft 135 kts 233°
2026-05-07 14:17 42.03641 -80.24957 2344 ft 134 kts 233°
2026-05-07 14:17 42.03116 -80.25974 2574 ft 132 kts 251°
2026-05-07 14:17 42.02842 -80.27142 2802 ft 130 kts 253°
2026-05-07 14:18 42.02533 -80.28278 3062 ft 127 kts 250°
2026-05-07 14:18 42.02211 -80.29354 3364 ft 122 kts 250°
2026-05-07 14:18 42.01900 -80.30374 3655 ft 117 kts 250°
2026-05-07 14:18 42.01592 -80.31368 3952 ft 114 kts 250°
2026-05-07 14:19 42.01268 -80.32415 4008 ft 129 kts 250°
2026-05-07 14:19 42.00910 -80.33593 4023 ft 141 kts 250°
2026-05-07 14:19 42.00521 -80.34847 4017 ft 148 kts 249°
2026-05-07 14:19 42.00116 -80.36141 4010 ft 151 kts 249°
2026-05-07 14:20 41.99705 -80.37452 4017 ft 153 kts 249°
2026-05-07 14:20 41.99291 -80.38771 4017 ft 153 kts 250°
2026-05-07 14:20 41.98880 -80.40087 4016 ft 153 kts 250°
2026-05-07 14:20 41.98466 -80.41407 4015 ft 153 kts 249°
2026-05-07 14:21 41.98050 -80.42735 4016 ft 155 kts 249°
2026-05-07 14:21 41.97635 -80.44055 4014 ft 155 kts 250°
2026-05-07 14:21 41.97218 -80.45394 4011 ft 155 kts 250°
2026-05-07 14:21 41.96797 -80.46736 4018 ft 156 kts 250°
2026-05-07 14:22 41.96373 -80.48092 4022 ft 159 kts 249°
2026-05-07 14:22 41.95938 -80.49471 4004 ft 158 kts 249°
2026-05-07 14:22 41.95510 -80.50821 4002 ft 156 kts 249°
2026-05-07 14:22 41.95088 -80.52165 4001 ft 155 kts 249°
2026-05-07 14:23 41.94671 -80.53499 4001 ft 155 kts 249°
2026-05-07 14:23 41.94248 -80.54847 4004 ft 157 kts 249°
2026-05-07 14:23 41.93825 -80.56191 3999 ft 155 kts 249°
2026-05-07 14:23 41.93409 -80.57508 4000 ft 154 kts 249°
2026-05-07 14:24 41.92994 -80.58838 4006 ft 155 kts 250°
2026-05-07 14:24 41.92571 -80.60175 4000 ft 155 kts 249°
2026-05-07 14:24 41.92149 -80.61506 4007 ft 154 kts 249°
2026-05-07 14:24 41.91724 -80.62836 4005 ft 156 kts 250°
2026-05-07 14:25 41.91303 -80.64193 4016 ft 158 kts 249°
2026-05-07 14:25 41.90874 -80.65565 3979 ft 162 kts 250°
2026-05-07 14:25 41.90432 -80.66942 4006 ft 159 kts 249°
2026-05-07 14:25 41.90003 -80.68295 4016 ft 157 kts 250°
2026-05-07 14:26 41.89579 -80.69645 3985 ft 160 kts 249°
2026-05-07 14:26 41.89135 -80.71006 4002 ft 158 kts 250°
2026-05-07 14:26 41.88716 -80.72364 4037 ft 158 kts 248°
2026-05-07 14:26 41.88277 -80.73736 3975 ft 164 kts 249°
2026-05-07 14:27 41.87836 -80.75134 4006 ft 165 kts 248°
2026-05-07 14:27 41.87359 -80.76544 3984 ft 166 kts 249°
2026-05-07 14:27 41.86955 -80.77935 4001 ft 158 kts 250°
2026-05-07 14:27 41.86522 -80.79308 4004 ft 161 kts 248°
2026-05-07 14:28 41.86079 -80.80690 4017 ft 159 kts 249°
2026-05-07 14:28 41.85642 -80.82042 4020 ft 158 kts 248°
2026-05-07 14:28 41.85213 -80.83413 4000 ft 157 kts 250°
2026-05-07 14:28 41.84788 -80.84748 4000 ft 154 kts 249°
2026-05-07 14:29 41.84375 -80.86060 4005 ft 152 kts 249°
2026-05-07 14:29 41.83962 -80.87357 4011 ft 151 kts 249°
2026-05-07 14:29 41.83549 -80.88643 3999 ft 149 kts 249°
2026-05-07 14:29 41.83135 -80.89921 4001 ft 149 kts 249°
2026-05-07 14:30 41.82735 -80.91184 3995 ft 148 kts 249°
2026-05-07 14:30 41.82331 -80.92463 3996 ft 149 kts 249°
2026-05-07 14:30 41.81922 -80.93735 3998 ft 149 kts 249°
2026-05-07 14:30 41.81512 -80.95018 3997 ft 149 kts 248°
2026-05-07 14:31 41.81102 -80.96294 3999 ft 149 kts 249°
2026-05-07 14:31 41.80691 -80.97572 3997 ft 150 kts 249°
2026-05-07 14:31 41.80286 -80.98860 4003 ft 150 kts 249°
2026-05-07 14:31 41.79888 -81.00179 3975 ft 158 kts 248°
2026-05-07 14:32 41.79327 -81.01457 4026 ft 158 kts 241°
2026-05-07 14:32 41.78771 -81.02732 4035 ft 157 kts 243°
2026-05-07 14:32 41.78218 -81.03974 4017 ft 156 kts 242°
2026-05-07 14:32 41.77660 -81.05241 4013 ft 157 kts 242°
2026-05-07 14:33 41.77111 -81.06487 4016 ft 154 kts 241°
2026-05-07 14:33 41.76564 -81.07690 4011 ft 152 kts 242°
2026-05-07 14:33 41.76018 -81.08907 4015 ft 155 kts 241°
2026-05-07 14:33 41.75452 -81.10162 4000 ft 158 kts 242°
2026-05-07 14:34 41.74897 -81.11415 4018 ft 157 kts 239°
2026-05-07 14:34 41.74337 -81.12667 4005 ft 154 kts 243°
2026-05-07 14:34 41.73800 -81.13893 4002 ft 151 kts 242°
2026-05-07 14:34 41.73270 -81.15092 4028 ft 152 kts 244°
2026-05-07 14:35 41.72737 -81.16320 4018 ft 152 kts 242°
2026-05-07 14:35 41.72194 -81.17540 4008 ft 153 kts 241°
2026-05-07 14:35 41.71653 -81.18761 4007 ft 151 kts 242°
2026-05-07 14:35 41.71116 -81.19970 4011 ft 151 kts 242°
2026-05-07 14:36 41.70591 -81.21184 4011 ft 150 kts 242°
2026-05-07 14:36 41.70061 -81.22389 4013 ft 150 kts 242°
2026-05-07 14:36 41.69536 -81.23582 4011 ft 151 kts 242°
2026-05-07 14:36 41.69004 -81.24799 4023 ft 152 kts 242°
2026-05-07 14:37 41.68455 -81.26030 4023 ft 155 kts 242°
2026-05-07 14:37 41.67374 -81.28499 4044 ft 153 kts 242°
2026-05-07 14:37 41.66832 -81.29740 4016 ft 154 kts 242°
2026-05-07 14:38 41.66291 -81.30971 4021 ft 155 kts 243°
2026-05-07 14:38 41.65749 -81.32215 4015 ft 154 kts 242°
2026-05-07 14:38 41.65212 -81.33451 4016 ft 153 kts 243°
2026-05-07 14:38 41.64671 -81.34674 4016 ft 153 kts 242°
2026-05-07 14:39 41.64124 -81.35916 4011 ft 155 kts 241°
2026-05-07 14:39 41.63758 -81.36736 4039 ft 156 kts 240°
2026-05-07 14:39 41.63206 -81.38022 4044 ft 158 kts 242°
2026-05-07 14:39 41.62654 -81.39295 4014 ft 156 kts 242°
2026-05-07 14:40 41.62122 -81.40528 4011 ft 154 kts 242°
2026-05-07 14:40 41.61570 -81.41748 4030 ft 156 kts 240°
2026-05-07 14:40 41.61036 -81.43029 4007 ft 155 kts 243°
2026-05-07 14:40 41.60498 -81.44283 4018 ft 160 kts 241°
2026-05-07 14:41 41.59953 -81.45562 4013 ft 155 kts 242°
2026-05-07 14:41 41.59418 -81.46804 4008 ft 154 kts 242°
2026-05-07 14:41 41.58878 -81.48048 3951 ft 156 kts 243°
2026-05-07 14:41 41.58335 -81.49328 3813 ft 159 kts 244°
2026-05-07 14:42 41.57808 -81.50561 3685 ft 151 kts 243°
2026-05-07 14:42 41.57273 -81.51771 3546 ft 149 kts 242°
2026-05-07 14:42 41.56743 -81.52946 3417 ft 147 kts 242°
2026-05-07 14:42 41.56226 -81.54121 3288 ft 145 kts 241°
2026-05-07 14:43 41.55694 -81.55306 3164 ft 152 kts 242°
2026-05-07 14:43 41.55158 -81.56517 3038 ft 151 kts 243°
2026-05-07 14:43 41.54631 -81.57731 3023 ft 150 kts 243°
2026-05-07 14:43 41.54121 -81.58919 3004 ft 145 kts 242°
2026-05-07 14:44 41.53621 -81.60050 3015 ft 141 kts 242°
2026-05-07 14:44 41.53135 -81.61170 3016 ft 140 kts 242°
2026-05-07 14:44 41.52649 -81.62288 3015 ft 141 kts 242°
2026-05-07 14:44 41.52158 -81.63402 3005 ft 138 kts 242°
2026-05-07 14:45 41.51675 -81.64504 3003 ft 137 kts 242°
2026-05-07 14:45 41.51197 -81.65567 3015 ft 134 kts 243°
2026-05-07 14:45 41.50716 -81.66658 3018 ft 138 kts 242°
2026-05-07 14:45 41.50218 -81.67753 3020 ft 138 kts 242°
2026-05-07 14:46 41.49732 -81.68868 3025 ft 140 kts 243°
2026-05-07 14:46 41.49244 -81.70007 3024 ft 142 kts 242°
2026-05-07 14:46 41.48744 -81.71150 3016 ft 143 kts 242°
2026-05-07 14:46 41.48249 -81.72279 3006 ft 138 kts 242°
2026-05-07 14:47 41.47765 -81.73383 3031 ft 138 kts 243°
2026-05-07 14:47 41.47323 -81.74526 3021 ft 141 kts 247°
2026-05-07 14:47 41.46926 -81.75720 3010 ft 141 kts 248°
2026-05-07 14:47 41.46514 -81.76928 3010 ft 141 kts 247°
2026-05-07 14:48 41.46039 -81.78082 2867 ft 145 kts 233°
2026-05-07 14:48 41.45337 -81.79014 2735 ft 135 kts 230°
2026-05-07 14:48 41.44748 -81.79886 2576 ft 117 kts 234°
2026-05-07 14:48 41.44251 -81.80640 2477 ft 100 kts 234°
2026-05-07 14:49 41.43830 -81.81250 2314 ft 77 kts 236°
2026-05-07 14:49 41.43496 -81.81749 2067 ft 75 kts 230°
2026-05-07 14:49 41.43146 -81.82299 1703 ft 80 kts 237°
2026-05-07 14:49 41.42794 -81.82876 1409 ft 80 kts 237°
2026-05-07 14:50 41.42455 -81.83444 1121 ft 76 kts 232°
2026-05-07 14:50 41.42130 -81.83957 965 ft 69 kts 231°
2026-05-07 14:50 41.41826 -81.84427 829 ft 63 kts 233°
2026-05-07 14:50 41.41570 -81.84832 787 ft 53 kts 230°
2026-05-07 14:51 41.41387 -81.85143 788 ft 29 kts 232°
2026-05-07 14:51 41.41258 -81.85351 787 ft 32 kts 230°
2026-05-07 14:51 41.41090 -81.85482 783 ft 4 kts 157°
2026-05-07 14:51 41.41089 -81.85480 783 ft 0 kts 149°
2026-05-07 14:52 41.41081 -81.85469 783 ft 6 kts 118°
2026-05-07 14:52 41.41084 -81.85358 783 ft 18 kts 92°
2026-05-07 14:53 41.41086 -81.85155 784 ft 20 kts 68°
2026-05-07 14:53 41.41195 -81.84996 786 ft 28 kts 49°
2026-05-07 14:53 41.41336 -81.84775 788 ft 34 kts 49°
2026-05-07 14:53 41.41484 -81.84566 787 ft 17 kts 40°
2026-05-07 14:54 41.41436 -81.84587 788 ft 18 kts 225°
2026-05-07 14:54 41.41338 -81.84508 790 ft 25 kts 120°
2026-05-07 14:54 41.41228 -81.84386 791 ft 21 kts 172°
2026-05-07 14:54 41.41066 -81.84378 794 ft 25 kts 169°
2026-05-07 14:55 41.40886 -81.84379 794 ft 23 kts 180°
2026-05-07 14:55 41.40757 -81.84362 794 ft 19 kts 184°
2026-05-07 14:55 41.40595 -81.84351 796 ft 27 kts 202°
2026-05-07 14:55 41.40403 -81.84370 798 ft 26 kts 183°
2026-05-07 14:56 41.40303 -81.84447 798 ft 10 kts 271°
2026-05-07 14:56 41.40303 -81.84456 798 ft 0 kts 269°